Showing default

IRIDIUM 175, 43928

Orbit data source: Space-Track

IRIDIUM 175, 43928 is a payload satellite owned by Iridium (US) in LEO that was launched on Fri, 11 Jan 2019 UTC via an FALCON 9 launch vehicle from the Air Force Western Test Range (AFWTR). Payload-class satellites include a variety of spacecraft equipped with specific instruments for various scientific and technological missions. These include communications satellites like Starlink; space stations such as the ISS; scientific satellites like the Hubble; Earth observation satellites from companies like Planet Labs, Umbra, and HawkEye 360; GPS; miniature CubeSats for education and research; and military/defense satellites.

Loading next visibility...
Identifier
43928, 2019-002G
Orbit
LEO
Country
Flag of USUS
Related business
Manufacturer
NGIS SSG Gilbert
Mission
Operational Commercial Communications
Bus & Motor
ELITEBUS, Unknown motor
Mass
860 kg wet, 700 kg dry
Launch date (UTC)
2019-01-11 (7 years ago)
Launch vehicle
FALCON 9
Launch site
Air Force Western Test Range (AFWTR)
Object type
Payload
Rocket body
Debris
Shape & HBR
Trap Box + 2 Pan, 4.8 m
Radar Cross Section
10.154 m², Large (>1 m²)

Expand to show TLE details & history
Last TLE update: 13 hours ago

TLE from 13 hours ago
0 IRIDIUM 175
1 43928U 19002G   26036.22903397  .00001194  00000-0  18547-3 0  9993
2 43928  86.1538 348.0518 0001261  75.1410 284.9946 14.72252736379826
Epoch: 2026-02-05T05:29Z
TLE epoch observation values (Epoch: 2026-02-05T05:29:48.535Z)
Latitude
-0.00007°
Longitude
130.21531°
Altitude
656.758 km
Speed
7.529 km/s
True Right ascension
23h 12m 12s
True Declination
0° 00' 00"
Sunlit
Object was in daylight at epoch
Visualization orbit readout
Latitude
Unknown
Longitude
Unknown
Altitude
Unknown
Speed
Unknown
Apparent Right ascension
Unknown
Apparent Declination
Unknown
Sunlit
N/A
Visualization observer readout
Local Sidereal Time
20:39:11
Azimuth
Unknown
Elevation
Unknown
Doppler factor
Unknown
Orbital elements
Apogee altitude
651.688 km
Perigee altitude
649.915 km
Semi-major axis
7,028.939 km
Eccentricity
0.00013
Inclination
86.1538°
RAAN
348.0518°
Arg. of periapsis
75.141°
True anomaly
284.98064°
Mean anomaly
284.9946°
Eccentric anomaly
284.98762°
Mean motion
3.68306 °/min
Orbital period
97.74 mins
BSTAR
0.00018547
Loading maneuver chart data...
Computing Atmospheric mass density...
Loading historical data...
Loading historical data...
Loading historical data...
Loading historical data...
Loading historical data...
Loading historical data...
Loading historical data...

Documentation

Showing up to 5 results
|